Regional Weather Roundup
Issued by NWS

Home | Current Version | Previous Version | Graphics & Text | Print | Product List | Glossary On
Versions: 1 2 3 4 5 6 7 8 9 10 11 12 13 14 15 16 17 18 19 20 21 22 23 24 25 26 27 28 29 30 31 32 33 34 35 36 37 38 39 40 41 42 43 44 45 46 47 48 49 50
000
ASUS45 KBOI 300310
RWRID

IDAHO REGIONAL WEATHER ROUNDUP
NATIONAL WEATHER SERVICE BOISE ID
900 PM MDT MON JUN 29 2015

NOTE: "FAIR" INDICATES FEW OR NO CLOUDS BELOW 12000 FEET
WITH NO SIGNIFICANT WEATHER AND/OR OBSTRUCTIONS TO VISIBILITY

IDZ012-014-300400-
SOUTHWEST IDAHO


CITY           SKY/WX    TMP DP  RH WIND       PRES   REMARKS
BOISE          PTCLDY    94  54  25 CALM      29.88R HX  92
CALDWELL       PTCLDY    93  57  29 NW9       29.86R HX  92
MOUNTAIN HOME  MOCLDY    98  49  19 NW13      29.88R HX  95
$$

IDZ016-017-300400-
SOUTHCENTRAL IDAHO


CITY           SKY/WX    TMP DP  RH WIND       PRES   REMARKS
BURLEY         CLOUDY    81  54  39 SW14      30.02R
JEROME         CLOUDY    90  41  18 W14G39    29.99R
TWIN FALLS     CLOUDY    88  48  25 S14G25    30.01R
$$

IDZ019>023-300400-
SOUTHEAST IDAHO


CITY           SKY/WX    TMP DP  RH WIND       PRES   REMARKS
IDAHO FALLS    CLOUDY    80  52  37 E18G26    30.10S
POCATELLO      CLOUDY    82  51  34 NE16      30.05R
REXBURG        TSTM      71  57  61 E14G26    30.10F
$$

IDZ006-010-011-018-031-032-300400-
CENTRAL IDAHO MOUNTAINS


CITY           SKY/WX    TMP DP  RH WIND       PRES   REMARKS
MCCALL         CLEAR     83  50  31 W7        30.06R
HAILEY         MOCLDY    88  46  23 SW12G21   30.11R
STANLEY          N/A     83  44  25 W8        30.19R
SALMON         MOCLDY    75  57  53 W8        30.04R
CHALLIS        MOCLDY    78  58  49 NW5       30.07F
$$

IDZ002-004-006-007-026-300400-
NORTHERN IDAHO


CITY           SKY/WX    TMP DP  RH WIND       PRES   REMARKS
LEWISTON       CLEAR     93  55  27 N3        29.86R HX  91
LOWELL           N/A     81  65  58 CALM      29.86R
COEUR D`ALENE  CLEAR     88  61  40 S5        29.88S
MULLAN PASS    PTCLDY    69  54  58 S6        30.18F
$$



USA.gov is the U.S. government's official web portal to all federal, state and local government web resources and services.